NOAA 16 DEB

Satellite information

Favourite Embed

Satellite Type and Status

DEBRISIN ORBIT

Key statistics

Satellite NOAA 16 DEB at a glance.

Uptime

9215

Days in orbit

Revolutions

≈ 14.2

Per day

Orbit

SSO

Sun Synchronous Orbit

Inclination

98.7

Latest

Satellite identification and parameters

Extended collection of information and parameters for NOAA 16 DEB.

Object identification

Identified? True

Debris? True

Object name: NOAA 16 DEB

International designator: 2000-055DZ

Object number (NORAD): 41220

Object ID (CCSDS): 41220

Country: UNITED STATES OF AMERICA (US)

Current information (Y/N): Y

RCS size: SMALL

Orbital parameters

Period: 101.282 minutes

Inclination: 98.6805 deg

SMA: 7197.481 km

Apoapsis: 829.037 km

Periapsis: 809.656 km

RAAN: 33.3262 deg

Eccentricy: 0.00134638

Argument of periapsis: 2.1211 deg

Mean anomaly: 358.0021 deg

Mean motion: 14.21778567 rev/day

Mean motion (dot): 0.00004413 rev/day2

B* drag term: 0.0020229739 1/REarth

Two-line elements (TLE)

Creation date: Dec. 14, 2025, 3:07 a.m.

Reference frame: TEME

Reference center: EARTH

Epoch: Dec. 13, 2025, 1:34 p.m. UTC

TLE line 0: 0 NOAA 16 DEB

TLE line 1: 1 41220U 00055DZ 25347.56581539 .00004413 00000-0 20230-2 0 9993

TLE line 2: 2 41220 98.6805 33.3262 0013464 2.1211 358.0021 14.21778567515807

Live tracking on map

Real-time ground track for satellite NOAA 16 DEB.

In-orbit conjunctions

A list of the most updated potential collisions computed for object NOAA 16 DEB.

Target Orbit TCA Probability of collision Miss distance Type
START 1 LEO 2024-11-25 20:27:51 0.0001725526 594.0 (m) PAYLOAD
COSMOS 1275 DEB LEO 2024-11-14 21:14:57 0.0007362612 266.0 (m) DEBRIS
FENGYUN 1C DEB SSO 2024-11-09 20:10:17 0.0001106526 546.0 (m) DEBRIS
COSMOS 2333 LEO 2024-06-05 21:41:19 0.000102895 723.0 (m) PAYLOAD

Associated space launch

The NOAA K, L and M POES satellites begin the fifth generation of improved environmental monitoring in support of NOAA missions. The instrument payload has significant improvements and additions/deletions. The instrument changes have effected the spacecraft subsystems and data formats.

NOAA 16 DEB was lifted into orbit during the mission ‘Titan II SLV | NOAA 16’, on board a Titan II SLV space rocket.

The launch took place on Sept. 21, 2000, 10:22 a.m. from Space Launch Complex 4W.

For more information about the launch, click the button.

Launch to space Titan II SLV | NOAA 16
Titan II SLV | NOAA 16

Agency: N/A

Status: Launch Successful

Launch date: Sept. 21, 2000, 10:22 a.m. UTC

Rocket: Titan II SLV

Launch pad: Space Launch Complex 4W

Location: Vandenberg SFB, CA, USA

...

Latest news about this satellite

There are no fresh news available about this satellite. Check back as we update our databases every day.


Newsletter sign-up

Weekly statistics, charts and insights to help you stay on top of the space industry.